User: anonymous   Login
Location: NJAA Observatory
(40.6819°N, 74.8979°W)
Time: 20:59:36
(UTC-04:00)
Language:

Meteor 1-28 Rocket - Orbit

View from above orbital plane
View from above orbital plane
View from above satellite
View from above satellite

Ground track
Ground track

The orbit data is extracted from the following two-line orbital elements,

1 10114U 77057B   14304.12090403  .00002952  00000-0  16582-3 0  3878
2 10114 097.2517 158.0629 0016744 071.7982 288.5071 15.13934180 38127
Epoch (UTC): 31 October 2014 02:54:06
Eccentricity: 0.0016744
inclination: 97.2517°
perigee height: 512 km
apogee height: 536 km
right ascension of ascending node: 158.0629°
argument of perigee: 71.7982°
revolutions per day: 15.13934180
mean anomaly at epoch: 288.5071°
orbit number at epoch: 3812

The dashed part of the orbit path shows where the satellite is in the earth's shadow,  

DLR